Regional Weather Roundup
Issued by NWS

Home | Current Version | Previous Version | Graphics & Text | Print | Product List | Glossary On
Versions: 1 2 3 4 5 6 7 8 9 10 11 12 13 14 15 16 17 18 19 20 21 22 23 24 25 26 27 28 29 30 31 32 33 34 35 36 37 38 39 40 41 42 43 44 45 46 47 48 49 50
000
ASUS43 KLMK 300710
RWRKY
KENTUCKY REGIONAL WEATHER ROUNDUP
NATIONAL WEATHER SERVICE LOUISVILLE KY
300 AM EDT SAT AUG 30 2014

NOTE "FAIR" INDICATES FEW OR NO CLOUDS BELOW 12,000 FEET
WITH NO SIGNIFICANT WEATHER AND/OR OBSTRUCTIONS TO VISIBILITY.

KYZ001>023-026-027-061>063-070>075-300800-
WESTERN AND SOUTH CENTRAL KENTUCKY

CITY           SKY/WX    TMP DP  RH WIND       PRES   REMARKS
PADUCAH        CLOUDY    74  68  81 S5        29.98F
HENDERSON      MOCLDY    73  64  73 S5        29.99F
OWENSBORO      NOT AVBL
HOPKINSVILLE   MOCLDY    77  64  64 SE7       30.01F
BOWLING GREEN  CLEAR     70  66  87 CALM      30.04F
GLASGOW        PTCLDY    69  63  80 CALM      30.06F
$$

KYZ024-025-028>034-038-045-046-053-300800-
NORTH CENTRAL KENTUCKY

CITY           SKY/WX    TMP DP  RH WIND       PRES   REMARKS
LOUISVILLE/SDF CLEAR     73  65  75 SE6       30.02F
LOUISVILLE/LOU CLEAR     74  64  71 S3        30.03F
FORT KNOX      CLEAR     69  65  85 S5        30.03S
$$

KYZ035>037-039>044-047>052-055>060-089>105-300800-
NORTHEAST KENTUCKY

CITY           SKY/WX    TMP DP  RH WIND       PRES   REMARKS
LEXINGTON      PTCLDY    74  69  85 SE6       30.08F
COVINGTON      CLEAR     72  68  87 S6        30.04F
FRANKFORT      PTCLDY    72  67  84 SE5       30.05F
$$

KYZ054-064>069-076>088-106>120-300800-
SOUTHEAST KENTUCKY

CITY           SKY/WX    TMP DP  RH WIND       PRES   REMARKS
JACKSON          N/A     74  69  85 CALM      30.12S
LONDON         CLEAR     71  68  90 CALM      30.13R FOG
SOMERSET       MOCLDY    68  68 100 CALM      30.11S
MIDDLESBORO    CLEAR     67  65  93 CALM      30.15S
MONTICELLO     SUNNY     69  67  93 CALM      30.11F
$$



USA.gov is the U.S. government's official web portal to all federal, state and local government web resources and services.